Preview of NWS' New Version of Forecast
This preview is not operational and should not be used for support decisions.

Terminal Aerodrome Forecast (TAF)

Issued by National Weather Service (NWS)

                            
000
FTUS42 KMFL 171252 AAA
TAFMIA
TAF AMD
KMIA 171252Z 1713/1818 32005KT P6SM FEW020 SCT050
     FM171900 16007KT P6SM VCSH SCT025 BKN035
     FM180000 35005KT P6SM VCSH SCT010 BKN035 OVC050=